TimePST,TemperatureF,Dew PointF,Humidity,Sea Level PressureIn,VisibilityMPH,Wind Direction,Wind SpeedMPH,Gust SpeedMPH,PrecipitationIn,Events,Conditions,WindDirDegrees,DateUTC
12:53 AM,39.9,32.0,73,29.88,10.0,North,5.8,-,N/A,,Clear,350,2012-11-28 08:53:00
1:53 AM,39.0,32.0,76,29.85,10.0,North,4.6,-,N/A,,Mostly Cloudy,360,2012-11-28 09:53:00
2:53 AM,39.9,33.1,77,29.83,10.0,North,5.8,-,N/A,,Overcast,360,2012-11-28 10:53:00
3:53 AM,42.1,33.1,70,29.82,10.0,North,4.6,-,N/A,,Mostly Cloudy,350,2012-11-28 11:53:00
4:53 AM,42.1,33.1,70,29.78,10.0,North,9.2,-,N/A,,Mostly Cloudy,10,2012-11-28 12:53:00
6:53 AM,43.0,33.1,68,29.77,10.0,Calm,Calm,-,N/A,,Overcast,0,2012-11-28 14:53:00
7:53 AM,41.0,35.1,79,29.70,10.0,North,6.9,-,0.01,Rain,Light Rain,10,2012-11-28 15:53:00
8:53 AM,43.0,35.1,74,29.69,10.0,North,8.1,-,0.01,,Mostly Cloudy,360,2012-11-28 16:53:00
10:53 AM,44.1,36.0,73,29.67,10.0,North,10.4,-,0.00,,Overcast,350,2012-11-28 18:53:00
11:53 AM,45.0,37.0,74,29.64,10.0,North,10.4,-,0.00,,Overcast,360,2012-11-28 19:53:00
12:53 PM,46.0,37.9,73,29.63,10.0,NNW,6.9,-,N/A,,Overcast,340,2012-11-28 20:53:00
1:53 PM,46.0,39.0,76,29.63,10.0,NNW,4.6,-,N/A,,Overcast,340,2012-11-28 21:53:00
2:53 PM,46.9,39.9,77,29.64,10.0,NE,4.6,-,N/A,,Mostly Cloudy,50,2012-11-28 22:53:00
3:53 PM,46.9,41.0,80,29.68,8.0,SE,4.6,-,0.01,Rain,Light Rain,130,2012-11-28 23:53:00
4:53 PM,46.0,42.1,86,29.69,9.0,NE,3.5,-,0.00,,Overcast,40,2012-11-29 00:53:00
5:53 PM,45.0,39.9,82,29.70,9.0,Calm,Calm,-,N/A,,Mostly Cloudy,0,2012-11-29 01:53:00
6:53 PM,45.0,41.0,86,29.73,8.0,SE,6.9,-,N/A,,Overcast,130,2012-11-29 02:53:00
7:53 PM,44.1,41.0,89,29.73,8.0,Calm,Calm,-,0.00,,Mostly Cloudy,0,2012-11-29 03:53:00
8:53 PM,43.0,39.9,89,29.73,6.0,Calm,Calm,-,N/A,,Partly Cloudy,0,2012-11-29 04:53:00
9:53 PM,43.0,39.9,89,29.73,6.0,Calm,Calm,-,N/A,,Scattered Clouds,0,2012-11-29 05:53:00
11:53 PM,42.1,39.0,89,29.70,6.0,Calm,Calm,-,N/A,,Clear,0,2012-11-29 07:53:00